| time (UTC) | temp C | wind direction | speed KPH | gust KPH | rain 1hr cm | rain 24hr cm | rain mn cm | humidity % | barometer mb |
| 20260507202921 | 11 | 6 | 12.9 | 16.1 | 0.00 | 0.00 | 0.00 | 49 | 1008.8 |
| 20260507201920 | 12 | 354 | 14.5 | 27.4 | 0.00 | 0.00 | 0.00 | 49 | 1009.0 |
| 20260507200918 | 11 | 255 | 3.2 | 4.8 | 0.00 | 0.00 | 0.00 | 52 | 1009.1 |
| 20260507195915 | 11 | 130 | 3.2 | 11.3 | 0.00 | 0.00 | 0.00 | 52 | 1009.2 |
| 20260507194910 | 11 | 23 | 4.8 | 12.9 | 0.00 | 0.00 | 0.00 | 52 | 1009.1 |
| 20260507193908 | 11 | 82 | 6.4 | 12.9 | 0.00 | 0.00 | 0.00 | 52 | 1009.4 |
| 20260507192908 | 11 | 14 | 4.8 | 14.5 | 0.00 | 0.00 | 0.00 | 52 | 1009.6 |
| 20260507191907 | 10 | 27 | 9.7 | 14.5 | 0.00 | 0.00 | 0.00 | 55 | 1009.5 |
| 20260507190905 | 10 | 258 | 9.7 | 12.9 | 0.00 | 0.00 | 0.00 | 53 | 1009.6 |
| 20260507185902 | 11 | 11 | 8.0 | 14.5 | 0.00 | 0.00 | 0.00 | 53 | 1009.6 |
| 20260507184901 | 12 | 328 | 4.8 | 9.7 | 0.00 | 0.00 | 0.00 | 51 | 1009.7 |
| 20260507183901 | 11 | 23 | 1.6 | 8.0 | 0.00 | 0.00 | 0.00 | 54 | 1009.7 |
| 20260507182856 | 11 | 47 | 16.1 | 19.3 | 0.00 | 0.00 | 0.00 | 49 | 1009.7 |
| 20260507181854 | 11 | 328 | 9.7 | 19.3 | 0.00 | 0.00 | 0.00 | 52 | 1009.9 |
| 20260507180853 | 12 | 348 | 1.6 | 11.3 | 0.00 | 0.00 | 0.00 | 53 | 1009.9 |
| 20260507175851 | 11 | 287 | 6.4 | 17.7 | 0.00 | 0.00 | 0.00 | 47 | 1010.0 |
| 20260507174846 | 11 | 75 | 14.5 | 17.7 | 0.00 | 0.00 | 0.00 | 53 | 1010.4 |
| 20260507173846 | 10 | 301 | 9.7 | 14.5 | 0.00 | 0.00 | 0.00 | 55 | 1010.4 |
| 20260507172845 | 11 | 126 | 6.4 | 16.1 | 0.00 | 0.00 | 0.00 | 58 | 1010.6 |
| 20260507171844 | 11 | 152 | 0.0 | 14.5 | 0.00 | 0.00 | 0.00 | 55 | 1010.4 |
| 20260507170843 | 10 | 333 | 6.4 | 9.7 | 0.00 | 0.00 | 0.00 | 52 | 1010.7 |
| 20260507165841 | 10 | 293 | 6.4 | 9.7 | 0.00 | 0.00 | 0.00 | 54 | 1010.8 |
| 20260507164839 | 10 | 252 | 11.3 | 14.5 | 0.00 | 0.00 | 0.00 | 50 | 1010.7 |
| 20260507163839 | 11 | 298 | 4.8 | 9.7 | 0.00 | 0.00 | 0.00 | 50 | 1010.9 |
| 20260507162839 | 11 | 12 | 4.8 | 9.7 | 0.00 | 0.00 | 0.00 | 61 | 1011.1 |
| 20260507161837 | 10 | 61 | 4.8 | 9.7 | 0.00 | 0.00 | 0.00 | 56 | 1011.2 |
| 20260507160836 | 10 | 4 | 3.2 | 11.3 | 0.00 | 0.00 | 0.00 | 61 | 1011.2 |
| 20260507155834 | 9 | 315 | 3.2 | 14.5 | 0.00 | 0.00 | 0.00 | 59 | 1011.3 |
| 20260507154833 | 10 | 315 | 4.8 | 14.5 | 0.00 | 0.00 | 0.00 | 58 | 1011.5 |
| 20260507153833 | 9 | 354 | 9.7 | 17.7 | 0.00 | 0.00 | 0.00 | 55 | 1011.6 |
| 20260507152832 | 9 | 1 | 9.7 | 17.7 | 0.00 | 0.00 | 0.00 | 56 | 1011.7 |
| 20260507151830 | 10 | 308 | 9.7 | 17.7 | 0.00 | 0.00 | 0.00 | 57 | 1011.8 |
| 20260507150829 | 10 | 294 | 3.2 | 11.3 | 0.00 | 0.00 | 0.00 | 62 | 1011.9 |
| 20260507145828 | 10 | 352 | 4.8 | 14.5 | 0.00 | 0.00 | 0.00 | 54 | 1012.0 |
| 20260507144828 | 10 | 259 | 9.7 | 20.9 | 0.00 | 0.00 | 0.00 | 55 | 1012.0 |
| 20260507143827 | 8 | 18 | 11.3 | 12.9 | 0.00 | 0.00 | 0.00 | 60 | 1012.1 |
| 20260507142826 | 9 | 242 | 3.2 | 14.5 | 0.00 | 0.00 | 0.00 | 55 | 1012.0 |
| 20260507141826 | 10 | 337 | 1.6 | 9.7 | 0.00 | 0.00 | 0.00 | 58 | 1012.4 |
| 20260507140825 | 8 | 10 | 4.8 | 8.0 | 0.00 | 0.00 | 0.00 | 60 | 1012.3 |
| 20260507135820 | 8 | 304 | 6.4 | 6.4 | 0.00 | 0.00 | 0.00 | 60 | 1012.1 |
| 20260507134819 | 8 | 277 | 8.0 | 11.3 | 0.00 | 0.00 | 0.00 | 58 | 1012.3 |
| 20260507133817 | 8 | 5 | 4.8 | 9.7 | 0.00 | 0.00 | 0.00 | 54 | 1012.4 |
| 20260507132817 | 8 | 359 | 3.2 | 6.4 | 0.00 | 0.00 | 0.00 | 59 | 1012.1 |
| 20260507131817 | 7 | 336 | 4.8 | 6.4 | 0.00 | 0.00 | 0.00 | 65 | 1012.3 |
| 20260507130816 | 7 | 30 | 3.2 | 12.9 | 0.00 | 0.00 | 0.00 | 64 | 1012.1 |
| 20260507125812 | 7 | 11 | 3.2 | 9.7 | 0.00 | 0.00 | 0.00 | 67 | 1012.5 |
| 20260507124812 | 7 | 17 | 1.6 | 8.0 | 0.00 | 0.00 | 0.00 | 78 | 1012.5 |
| 20260507123807 | 6 | 252 | 3.2 | 9.7 | 0.00 | 0.00 | 0.00 | 78 | 1012.5 |
| 20260507122806 | 6 | 1 | 6.4 | 9.7 | 0.00 | 0.00 | 0.00 | 77 | 1012.5 |
| 20260507121804 | 6 | 9 | 4.8 | 6.4 | 0.00 | 0.00 | 0.00 | 78 | 1012.5 |
| 20260507120802 | 6 | 13 | 4.8 | 6.4 | 0.00 | 0.00 | 0.00 | 78 | 1012.5 |
| 20260507115800 | 5 | 0 | 3.2 | 6.4 | 0.00 | 0.00 | 0.00 | 79 | 1012.4 |
| 20260507114758 | 5 | 38 | 6.4 | 11.3 | 0.00 | 0.00 | 0.00 | 81 | 1012.4 |
| 20260507113753 | 5 | 30 | 6.4 | 9.7 | 0.00 | 0.00 | 0.00 | 81 | 1012.3 |
| 20260507112753 | 4 | 54 | 8.0 | 11.3 | 0.00 | 0.00 | 0.00 | 81 | 1012.5 |
| 20260507111748 | 4 | 28 | 6.4 | 9.7 | 0.00 | 0.00 | 0.00 | 84 | 1012.3 |
| 20260507110746 | 3 | 55 | 6.4 | 11.3 | 0.00 | 0.00 | 0.00 | 84 | 1012.3 |
| 20260507105746 | 4 | 52 | 8.0 | 9.7 | 0.00 | 0.00 | 0.00 | 84 | 1012.1 |
| 20260507104745 | 4 | 54 | 6.4 | 11.3 | 0.00 | 0.00 | 0.00 | 87 | 1011.8 |
| 20260507103743 | 3 | 73 | 8.0 | 12.9 | 0.00 | 0.00 | 0.00 | 88 | 1011.5 |
| 20260507102742 | 2 | 36 | 12.9 | 12.9 | 0.00 | 0.00 | 0.00 | 90 | 1012.0 |
| 20260507101741 | 2 | 63 | 9.7 | 11.3 | 0.00 | 0.00 | 0.00 | 91 | 1011.7 |
| 20260507100739 | 2 | 63 | 8.0 | 9.7 | 0.00 | 0.00 | 0.00 | 91 | 1011.4 |
| 20260507095735 | 2 | 68 | 8.0 | 11.3 | 0.00 | 0.00 | 0.00 | 91 | 1011.5 |
| 20260507094734 | 2 | 58 | 9.7 | 14.5 | 0.00 | 0.00 | 0.00 | 92 | 1011.7 |
| 20260507093734 | 2 | 48 | 12.9 | 14.5 | 0.00 | 0.00 | 0.00 | 90 | 1011.8 |
| 20260507092730 | 2 | 53 | 8.0 | 9.7 | 0.00 | 0.00 | 0.00 | 90 | 1011.7 |
| 20260507091728 | 2 | 54 | 9.7 | 11.3 | 0.00 | 0.00 | 0.00 | 90 | 1011.6 |
| 20260507090725 | 2 | 66 | 9.7 | 12.9 | 0.00 | 0.00 | 0.00 | 90 | 1011.5 |
| 20260507085725 | 3 | 77 | 6.4 | 9.7 | 0.00 | 0.00 | 0.00 | 89 | 1011.8 |
| 20260507084724 | 3 | 50 | 6.4 | 9.7 | 0.00 | 0.00 | 0.00 | 90 | 1011.7 |
| 20260507083724 | 3 | 59 | 8.0 | 9.7 | 0.00 | 0.00 | 0.00 | 90 | 1011.7 |
| 20260507082722 | 3 | 48 | 9.7 | 14.5 | 0.00 | 0.00 | 0.00 | 90 | 1011.7 |
| 20260507081720 | 3 | 38 | 11.3 | 12.9 | 0.00 | 0.00 | 0.00 | 90 | 1011.8 |
| 20260507080719 | 4 | 43 | 6.4 | 12.9 | 0.00 | 0.00 | 0.00 | 89 | 1011.7 |
| 20260507075716 | 4 | 32 | 8.0 | 12.9 | 0.00 | 0.00 | 0.00 | 92 | 1011.7 |
| 20260507074715 | 5 | 51 | 8.0 | 9.7 | 0.00 | 0.00 | 0.00 | 94 | 1011.6 |
| 20260507073710 | 5 | 60 | 6.4 | 8.0 | 0.00 | 0.00 | 0.00 | 94 | 1011.6 |
| 20260507072710 | 4 | 115 | 3.2 | 6.4 | 0.00 | 0.00 | 0.00 | 94 | 1011.7 |
| 20260507071710 | 4 | 22 | 14.5 | 16.1 | 0.00 | 0.00 | 0.00 | 95 | 1011.8 |
| 20260507070710 | 4 | 75 | 6.4 | 8.0 | 0.00 | 0.00 | 0.00 | 96 | 1011.9 |
| 20260507065708 | 4 | 54 | 3.2 | 6.4 | 0.00 | 0.00 | 0.00 | 98 | 1011.7 |
| 20260507064703 | 4 | 83 | 3.2 | 8.0 | 0.00 | 0.00 | 0.00 | 96 | 1011.8 |
| 20260507063659 | 4 | 103 | 4.8 | 6.4 | 0.00 | 0.00 | 0.00 | 95 | 1011.7 |
| 20260507062658 | 4 | 53 | 4.8 | 9.7 | 0.00 | 0.00 | 0.00 | 95 | 1011.7 |
| 20260507061653 | 4 | 74 | 4.8 | 6.4 | 0.00 | 0.00 | 0.00 | 96 | 1011.7 |
| 20260507060649 | 4 | 317 | 1.6 | 8.0 | 0.00 | 0.00 | 0.00 | 97 | 1011.7 |
| 20260507055647 | 5 | 38 | 4.8 | 6.4 | 0.00 | 0.00 | 0.00 | 97 | 1011.6 |
| 20260507054645 | 4 | 41 | 3.2 | 6.4 | 0.00 | 0.00 | 0.00 | 98 | 1011.3 |
| 20260507053640 | 5 | 353 | 1.6 | 6.4 | 0.00 | 0.00 | 0.00 | 99 | 1011.6 |
| 20260507052636 | 5 | 295 | 3.2 | 6.4 | 0.00 | 0.00 | 0.00 | 99 | 1011.6 |
| 20260507051635 | 5 | 327 | 1.6 | 8.0 | 0.00 | 0.00 | 0.00 | 99 | 1011.4 |
| 20260507050635 | 5 | 319 | 4.8 | 6.4 | 0.00 | 0.00 | 0.00 | 99 | 1011.5 |
| 20260507045634 | 5 | 43 | 3.2 | 3.2 | 0.00 | 0.00 | 0.00 | 99 | 1011.2 |
| 20260507044634 | 5 | 40 | 3.2 | 6.4 | 0.00 | 0.00 | 0.00 | 99 | 1011.3 |
| 20260507043633 | 5 | 67 | 3.2 | 4.8 | 0.00 | 0.00 | 0.00 | 99 | 1011.4 |
| 20260507042632 | 5 | 52 | 0.0 | 4.8 | 0.00 | 0.00 | 0.00 | 99 | 1011.4 |
| 20260507041630 | 5 | 63 | 1.6 | 4.8 | 0.00 | 0.00 | 0.00 | 99 | 1011.2 |
| 20260507040630 | 5 | 69 | 3.2 | 4.8 | 0.00 | 0.00 | 0.00 | 99 | 1011.6 |
| 20260507035628 | 5 | 104 | 0.0 | 3.2 | 0.00 | 0.99 | 0.99 | 99 | 1011.2 |
| 20260507034626 | 5 | 78 | 1.6 | 4.8 | 0.00 | 0.99 | 0.99 | 99 | 1011.4 |
| 20260507033622 | 5 | 84 | 3.2 | 4.8 | 0.00 | 0.99 | 0.99 | 99 | 1011.2 |
| 20260507032622 | 5 | 67 | 1.6 | 6.4 | 0.00 | 0.99 | 0.99 | 99 | 1011.4 |
| 20260507031621 | 5 | 50 | 1.6 | 4.8 | 0.00 | 0.99 | 0.99 | 99 | 1011.2 |
| 20260507030620 | 5 | 56 | 3.2 | 3.2 | 0.00 | 0.99 | 0.99 | 99 | 1011.2 |
| 20260507025615 | 5 | 88 | 1.6 | 3.2 | 0.00 | 0.99 | 0.99 | 99 | 1011.1 |
| 20260507024610 | 5 | 121 | 0.0 | 3.2 | 0.00 | 0.99 | 0.99 | 99 | 1011.5 |
| 20260507023608 | 5 | 48 | 1.6 | 3.2 | 0.00 | 0.99 | 0.99 | 99 | 1011.4 |
| 20260507022603 | 6 | 74 | 1.6 | 3.2 | 0.00 | 0.99 | 0.99 | 99 | 1011.6 |
| 20260507021600 | 6 | 64 | 0.0 | 3.2 | 0.00 | 0.99 | 0.99 | 99 | 1011.5 |
| 20260507020555 | 5 | 113 | 0.0 | 3.2 | 0.00 | 0.99 | 0.99 | 99 | 1011.9 |
| 20260507015555 | 6 | 9 | 3.2 | 4.8 | 0.00 | 0.99 | 0.99 | 99 | 1011.9 |
| 20260507014555 | 6 | 65 | 0.0 | 4.8 | 0.00 | 0.99 | 0.99 | 99 | 1011.8 |
| 20260507013553 | 6 | 215 | 0.0 | 3.2 | 0.00 | 0.99 | 0.99 | 99 | 1012.0 |
| 20260507012548 | 6 | 70 | 0.0 | 1.6 | 0.00 | 0.99 | 0.99 | 99 | 1012.1 |
| 20260507011547 | 6 | 54 | 1.6 | 4.8 | 0.00 | 0.99 | 0.99 | 99 | 1011.9 |
| 20260507010543 | 6 | 30 | 3.2 | 4.8 | 0.00 | 0.99 | 0.99 | 99 | 1011.7 |
| 20260507005538 | 6 | 35 | 3.2 | 4.8 | 0.00 | 0.99 | 0.99 | 99 | 1011.6 |
| 20260507004537 | 6 | 338 | 1.6 | 4.8 | 0.00 | 0.99 | 0.99 | 99 | 1011.7 |
| 20260507003536 | 6 | 1 | 3.2 | 6.4 | 0.00 | 0.99 | 0.99 | 99 | 1011.3 |
| 20260507002534 | 6 | 38 | 3.2 | 6.4 | 0.00 | 0.99 | 0.99 | 99 | 1011.3 |
| 20260507001532 | 6 | 21 | 3.2 | 4.8 | 0.00 | 0.99 | 0.99 | 99 | 1011.2 |
| 20260507000532 | 6 | 12 | 3.2 | 8.0 | 0.00 | 0.99 | 0.99 | 99 | 1011.0 |
| 20260506235531 | 6 | 4 | 9.7 | 9.7 | 0.00 | 0.99 | 0.99 | 99 | 1010.9 |
| 20260506234530 | 6 | 29 | 6.4 | 6.4 | 0.00 | 0.99 | 0.99 | 99 | 1010.7 |
| 20260506233530 | 6 | 15 | 3.2 | 9.7 | 0.00 | 0.99 | 0.99 | 99 | 1010.7 |
| 20260506232528 | 6 | 345 | 8.0 | 8.0 | 0.00 | 0.99 | 0.99 | 99 | 1010.8 |
| 20260506231528 | 6 | 340 | 4.8 | 6.4 | 0.00 | 0.99 | 0.99 | 99 | 1010.6 |
| 20260506230527 | 6 | 4 | 3.2 | 8.0 | 0.00 | 0.99 | 0.99 | 99 | 1010.5 |
| 20260506225527 | 6 | 10 | 3.2 | 6.4 | 0.00 | 0.99 | 0.99 | 99 | 1010.7 |
| 20260506224525 | 6 | 334 | 6.4 | 6.4 | 0.00 | 0.99 | 0.99 | 99 | 1010.5 |
| 20260506223523 | 6 | 324 | 3.2 | 9.7 | 0.00 | 0.99 | 0.99 | 99 | 1010.5 |
| 20260506222522 | 6 | 8 | 6.4 | 8.0 | 0.00 | 0.99 | 0.99 | 99 | 1010.4 |
| 20260506221521 | 6 | 351 | 4.8 | 9.7 | 0.00 | 0.99 | 0.99 | 99 | 1010.3 |
| 20260506220519 | 6 | 7 | 6.4 | 14.5 | 0.00 | 0.99 | 0.99 | 99 | 1010.0 |
| 20260506215518 | 6 | 345 | 8.0 | 11.3 | 0.00 | 0.99 | 0.99 | 99 | 1009.6 |
| 20260506214517 | 6 | 322 | 6.4 | 12.9 | 0.00 | 0.99 | 0.99 | 99 | 1009.6 |
| 20260506213512 | 7 | 29 | 6.4 | 8.0 | 0.05 | 0.99 | 0.99 | 99 | 1009.4 |
| 20260506212511 | 6 | 345 | 9.7 | 14.5 | 0.00 | 0.99 | 0.99 | 99 | 1009.1 |
| 20260506211508 | 7 | 10 | 3.2 | 8.0 | 0.13 | 0.99 | 0.99 | 99 | 1009.2 |
| 20260506210508 | 7 | 351 | 4.8 | 8.0 | 0.05 | 0.97 | 0.97 | 99 | 1009.1 |
| 20260506205507 | 7 | 6 | 8.0 | 14.5 | 0.00 | 0.94 | 0.94 | 99 | 1008.8 |
| 20260506204507 | 7 | 342 | 8.0 | 9.7 | 0.00 | 0.94 | 0.94 | 99 | 1008.8 |